Ellensburg, WA

1:58 AM PDT on March 27, 2017 (GMT -0700)
Bowers

Weather History for KELN - January, 2014

Change the Weather History Date:

Thursday, January 2, 2014

  Actual Average (KYKM) Record (KYKM)
Temperature  
Mean Temperature 36 °F -  
Max Temperature 42 °F 33 °F 54 °F (2007)
Min Temperature 30 °F 18 °F -7 °F (1978)
Degree Days  
Heating Degree Days 29    
Moisture  
Dew Point 29 °F    
Average Humidity 79    
Maximum Humidity 85    
Minimum Humidity 62    
Precipitation  
Precipitation 0.00 in - - ()
Sea Level Pressure  
Sea Level Pressure 30.10 in    
Wind  
Wind Speed 3 mph (NE)    
Max Wind Speed 21 mph    
Max Gust Speed -    
Visibility 9 miles    
Events Rain    
Averages and records for this station are not official NWS values.
T = Trace of Precipitation, MM = Missing Value Source: NWS Daily Summary

Daily Weather History Graph

Daily Weather History Graph

Search for Another Location

Airport or City:

Trip Planner

Search our weather history database for the weather conditions in past years. The results will help you decide how hot, cold, wet, or windy it might be!

Date:

Astronomy

Jan. 02, 2014 Rise Set
Actual Time 7:48 AM PST 4:24 PM PST
Civil Twilight 7:12 AM PST 4:59 PM PST
Nautical Twilight 6:34 AM PST 5:38 PM PST
Astronomical Twilight 5:57 AM PST 6:15 PM PST
Moon 8:25 AM PST (1/2) 6:37 PM PST (1/2)
Length of Visible Light 9h 47m
Length of Day
8h 36m
Waxing Crescent, 3% of the Moon is Illuminated
Jan 2
Waxing Crescent
Jan 7
First Quarter
Jan 15
Full
Jan 23
Last Quarter
Jan 30
New

Hourly Weather History & Observations

Time (PST) Temp. Windchill Dew Point Humidity Pressure Visibility Wind Dir Wind Speed Gust Speed Precip Events Conditions
12:53 AM 34.0 °F 31.0 °F 28.9 °F 82% 30.33 in 10.0 mi West 3.5 mph - N/A   Overcast
1:53 AM 32.0 °F - 27.0 °F 82% 30.31 in 10.0 mi Calm Calm - N/A   Mostly Cloudy
2:53 AM 30.0 °F 25.2 °F 26.1 °F 85% 30.31 in 10.0 mi ENE 4.6 mph - N/A   Clear
3:53 AM 32.0 °F 28.7 °F 28.0 °F 85% 30.30 in 8.0 mi NE 3.5 mph - N/A   Clear
4:53 AM 30.9 °F - 27.0 °F 85% 30.28 in 8.0 mi Calm Calm - N/A   Overcast
5:53 AM 32.0 °F 28.7 °F 28.0 °F 85% 30.27 in 9.0 mi ENE 3.5 mph - N/A   Overcast
6:53 AM 32.0 °F - 28.0 °F 85% 30.25 in 10.0 mi Calm Calm - N/A   Mostly Cloudy
7:53 AM 32.0 °F - 28.0 °F 85% 30.23 in 8.0 mi Calm Calm - N/A   Mostly Cloudy
8:53 AM 33.1 °F 30.0 °F 28.9 °F 85% 30.22 in 7.0 mi East 3.5 mph - N/A   Scattered Clouds
9:53 AM 36.0 °F - 30.0 °F 79% 30.22 in 8.0 mi Calm Calm - N/A   Overcast
10:53 AM 37.9 °F - 30.0 °F 73% 30.18 in 10.0 mi Calm Calm - N/A   Scattered Clouds
11:53 AM 39.0 °F 36.8 °F 30.0 °F 70% 30.14 in 10.0 mi SSW 3.5 mph - N/A   Clear
12:53 PM 39.9 °F 37.8 °F 30.0 °F 68% 30.10 in 10.0 mi WNW 3.5 mph - N/A   Clear
1:53 PM 41.0 °F - 30.9 °F 67% 30.06 in 10.0 mi Calm Calm - N/A   Scattered Clouds
2:53 PM 42.1 °F 40.2 °F 30.0 °F 62% 30.03 in 10.0 mi SSE 3.5 mph - N/A   Clear
3:53 PM 39.0 °F 36.8 °F 30.0 °F 70% 30.00 in 9.0 mi SE 3.5 mph - N/A   Clear
4:53 PM 35.1 °F - 28.0 °F 76% 29.99 in 9.0 mi Calm Calm - N/A   Clear
5:53 PM 32.0 °F - 27.0 °F 82% 29.96 in 8.0 mi Calm Calm - N/A   Clear
6:53 PM 30.0 °F - 26.1 °F 85% 29.94 in 6.0 mi Calm Calm - N/A   Clear
7:53 PM 30.0 °F 26.5 °F 26.1 °F 85% 29.90 in 7.0 mi North 3.5 mph - N/A   Partly Cloudy
8:53 PM 30.9 °F 25.2 °F 27.0 °F 85% 29.87 in 5.0 mi ENE 5.8 mph - N/A   Clear
9:53 PM 33.1 °F 30.0 °F 28.9 °F 85% 29.84 in 6.0 mi Variable 3.5 mph - N/A   Clear
10:53 PM 41.0 °F 36.4 °F 36.0 °F 82% 29.84 in 10.0 mi WNW 6.9 mph - 0.00 in Rain Light Rain
11:53 PM 42.1 °F 33.1 °F 36.0 °F 79% 29.87 in 10.0 mi NW 20.7 mph - 0.00 in Rain Light Rain